Lubbock, TX

1:11 AM CST on November 13, 2019 (GMT -0600)
Lubbock International

Weather History for KLBB - August, 2019

Change the Weather History Date:

Saturday, August 24, 2019

  Actual Average Record
Temperature  
Mean Temperature 78 °F 78 °F  
Max Temperature 91 °F 91 °F 101 °F (1936)
Min Temperature 64 °F 66 °F 51 °F (1916)
Degree Days  
Heating Degree Days 0 0  
Month to date heating degree days 0 0  
Since 1 June heating degree days 0 2  
Since 1 July heating degree days 0 0  
Cooling Degree Days 13 13  
Month to date cooling degree days 491 346  
Year to date cooling degree days 1598 1439  
Since 1 June cooling degree days 1388 1193  
Growing Degree Days 28 (Base 50)    
Moisture  
Dew Point 64 °F    
Average Humidity 71    
Maximum Humidity 94    
Minimum Humidity 40    
Precipitation  
Precipitation 0.22 in 0.06 in 2.05 in (1969)
Month to date precipitation 1.94 1.45  
Year to date precipitation 15.39 12.61  
Snow  
Snow 0.00 in 0.00 in 0.00 in (2002)
Month to date snowfall 0.0 0.0  
Since 1 June snowfall 0.0 0.0  
Since 1 July snowfall 0.0 0.0  
Snow Depth 0.00 in    
Sea Level Pressure  
Sea Level Pressure 29.92 in    
Wind  
Wind Speed 10 mph ()    
Max Wind Speed 21 mph    
Max Gust Speed 26 mph    
Visibility 9.5 miles    
Events Rain , Thunderstorm    
T = Trace of Precipitation, MM = Missing Value Source: Averaged Metar Reports

Daily Weather History Graph

Daily Weather History Graph

Search for Another Location

Airport or City:

Astronomy

Aug. 24, 2019 Rise Set
Actual Time 7:15 AM CDT 8:23 PM CDT
Civil Twilight 6:49 AM CDT 8:48 PM CDT
Nautical Twilight 6:19 AM CDT 9:19 PM CDT
Astronomical Twilight 5:47 AM CDT 9:51 PM CDT
Moon 1:15 AM CDT (8/24) 3:33 PM CDT (8/24)
Length of Visible Light 13h 59m
Length of Day
13h 07m
Last Quarter, 39% of the Moon is Illuminated
Aug 24
Last Quarter
Aug 30
New
Sep 5
First Quarter
Sep 13
Full
Sep 21
Last Quarter

Hourly Weather History & Observations

Time (CDT) Temp. Heat Index Dew Point Humidity Pressure Visibility Wind Dir Wind Speed Gust Speed Precip Events Conditions
12:53 AM 73.0 °F - 66.0 °F 79% 29.90 in 10.0 mi ESE 6.9 mph - N/A   Scattered Clouds
1:53 AM 73.0 °F - 64.9 °F 76% 29.94 in 10.0 mi North 8.1 mph - N/A Thunderstorm Thunderstorm
2:22 AM 71.1 °F - 62.1 °F 73% 30.11 in 10.0 mi North 16.1 mph 23.0 mph 0.00 in Rain , Thunderstorm Light Thunderstorms and Rain
2:35 AM 69.1 °F - 62.1 °F 78% 30.11 in 9.0 mi North 18.4 mph 26.5 mph 0.00 in Rain Light Rain
2:53 AM 66.0 °F - 63.0 °F 90% 29.94 in 6.0 mi North 13.8 mph - 0.19 in Rain Heavy Rain
3:08 AM 66.0 °F - 63.0 °F 90% 30.08 in 8.0 mi ENE 17.3 mph - 0.03 in Rain Light Rain
3:15 AM 66.0 °F - 63.0 °F 90% 30.07 in 8.0 mi ENE 19.6 mph - 0.03 in Rain Light Rain
3:53 AM 66.0 °F - 62.1 °F 87% 29.88 in 10.0 mi East 17.3 mph - 0.03 in   Mostly Cloudy
4:53 AM 66.0 °F - 63.0 °F 90% 29.87 in 10.0 mi East 12.7 mph - N/A   Clear
5:38 AM 64.4 °F - 62.6 °F 94% 30.05 in 10.0 mi East 9.2 mph - N/A   Mostly Cloudy
5:53 AM 64.9 °F - 63.0 °F 93% 29.89 in 10.0 mi East 8.1 mph - N/A   Scattered Clouds
6:07 AM 64.9 °F - 63.0 °F 93% 30.04 in 10.0 mi East 6.9 mph - N/A   Mostly Cloudy
6:16 AM 64.9 °F - 63.0 °F 93% 30.05 in 8.0 mi ENE 5.8 mph - N/A   Mostly Cloudy
6:53 AM 64.9 °F - 63.0 °F 93% 29.90 in 8.0 mi East 6.9 mph - N/A   Overcast
7:53 AM 66.0 °F - 64.0 °F 93% 29.91 in 7.0 mi SE 8.1 mph - N/A   Overcast
8:36 AM 66.0 °F - 64.0 °F 93% 30.07 in 10.0 mi SE 8.1 mph - N/A   Overcast
8:53 AM 66.9 °F - 64.0 °F 90% 29.93 in 10.0 mi SSE 10.4 mph - N/A   Overcast
9:40 AM 69.1 °F - 64.0 °F 84% 30.05 in 10.0 mi SE 11.5 mph - N/A   Scattered Clouds
9:53 AM 71.1 °F - 64.9 °F 81% 29.90 in 10.0 mi SSE 12.7 mph - N/A   Partly Cloudy
10:53 AM 75.0 °F - 66.0 °F 73% 29.90 in 10.0 mi South 8.1 mph - N/A   Partly Cloudy
11:53 AM 81.0 °F 83.0 °F 66.0 °F 60% 29.89 in 10.0 mi West 9.2 mph - N/A   Partly Cloudy
12:53 PM 84.0 °F 86.5 °F 66.9 °F 56% 29.88 in 10.0 mi Variable 4.6 mph - N/A   Partly Cloudy
1:53 PM 86.0 °F 88.2 °F 66.0 °F 51% 29.86 in 10.0 mi Calm Calm - N/A   Scattered Clouds
2:53 PM 89.1 °F 91.3 °F 66.0 °F 46% 29.84 in 10.0 mi SSE 6.9 mph - N/A   Scattered Clouds
3:53 PM 90.0 °F 91.7 °F 64.9 °F 43% 29.81 in 10.0 mi Variable 6.9 mph - N/A   Scattered Clouds
4:53 PM 91.9 °F 94.1 °F 64.9 °F 41% 29.79 in 10.0 mi SSE 8.1 mph - N/A   Scattered Clouds
5:53 PM 91.0 °F 92.6 °F 64.0 °F 41% 29.78 in 10.0 mi SSE 13.8 mph - N/A   Scattered Clouds
6:53 PM 90.0 °F 90.6 °F 63.0 °F 40% 29.78 in 10.0 mi SSE 15.0 mph - N/A   Partly Cloudy
7:53 PM 87.1 °F 86.7 °F 60.1 °F 40% 29.80 in 10.0 mi SE 13.8 mph - N/A   Partly Cloudy
8:53 PM 84.9 °F 84.8 °F 60.1 °F 43% 29.81 in 10.0 mi SSE 12.7 mph - N/A   Partly Cloudy
9:53 PM 82.9 °F 83.7 °F 62.1 °F 49% 29.81 in 10.0 mi SSE 13.8 mph - N/A   Clear
10:53 PM 82.0 °F 82.7 °F 61.0 °F 49% 29.82 in 10.0 mi SSE 12.7 mph - N/A   Clear
11:53 PM 79.0 °F - 62.1 °F 56% 29.82 in 10.0 mi SSE 10.4 mph - N/A   Partly Cloudy